This is the latest recevied weather packets stored in our database for station/object KD2FGL-13. If no packets are shown the sender has not sent any weather packets the latest 10 day(s).
| Time | Temp. | Humidity | Pressure | Rain* | Wind** | Luminosity | Snow |
|---|---|---|---|---|---|---|---|
| 1788045194 | 23.33° C | 40% | 1023.6 hPa | 0.25 mm | - | - | - |
| 1788044282 | 25° C | 37% | 1023.5 hPa | 0.25 mm | - | - | - |
| 1788042461 | 25.56° C | 34% | 1023.8 hPa | 0.25 mm | - | - | - |
| 1788042155 | 25.56° C | 33% | 1023.7 hPa | 0.25 mm | - | - | - |
| 1788041547 | 25.56° C | 31% | 1023.6 hPa | 0.25 mm | - | - | - |
| 1788041243 | 25.56° C | 30% | 1023.6 hPa | 0.25 mm | - | - | - |
| 1788040939 | 25.56° C | 30% | 1023.4 hPa | 0.25 mm | - | - | - |
| 1788040635 | 25.56° C | 29% | 1023.5 hPa | 0.25 mm | - | - | - |
| 1788040332 | 25.56° C | 28% | 1023.4 hPa | 0.25 mm | - | - | - |
| 1788039420 | 26.11° C | 28% | 1023.4 hPa | 0.25 mm | - | - | - |
| 1788037900 | 26.11° C | 29% | 1023.9 hPa | 0.25 mm | - | - | - |
| 1788037596 | 26.11° C | 28% | 1024 hPa | 0.25 mm | - | - | - |
| 1788036988 | 26.11° C | 28% | 1024.3 hPa | 0.25 mm | - | - | - |
| 1788036380 | 26.11° C | 28% | 1024.4 hPa | 0.25 mm | - | - | - |
| 1788036076 | 25.56° C | 28% | 1024.5 hPa | 0.25 mm | - | - | - |
| 1788035164 | 25.56° C | 28% | 1024.4 hPa | 0.25 mm | - | - | - |
| 1788034558 | 26.11° C | 28% | 1024.6 hPa | 0.25 mm | - | - | - |
| 1788033949 | 26.11° C | 27% | 1024.4 hPa | 0.25 mm | - | - | - |
| 1788033645 | 26.11° C | 26% | 1024.4 hPa | 0.25 mm | - | - | - |
| 1788033341 | 26.11° C | 28% | 1024.6 hPa | 0.25 mm | - | - | - |
| 1788033037 | 26.11° C | 27% | 1024.7 hPa | 0.25 mm | - | - | - |
| 1788032129 | 25.56° C | 27% | 1024.7 hPa | 0.25 mm | - | - | - |
| 1788030909 | 25.56° C | 28% | 1024.8 hPa | 0.25 mm | - | - | - |
| 1788028790 | 25.56° C | 30% | 1025 hPa | 0 mm | - | - | - |
| 1788028479 | 25.56° C | 32% | 1025.1 hPa | 0 mm | - | - | - |
* Rain since midnight (hover to see other rain measurements)
** Current wind speed in m/s (hover to see current wind gust speed)